Redmond, OR

2:14 PM PST on November 16, 2019 (GMT -0800)
Roberts Field Airport

Weather History for KRDM - September, 2019

Change the Weather History Date:

Saturday, September 28, 2019

  Actual Average Record
Temperature  
Mean Temperature 44 °F 53 °F  
Max Temperature 51 °F 72 °F 93 °F (1967)
Min Temperature 37 °F 35 °F 22 °F (1999)
Degree Days  
Heating Degree Days 21 12  
Month to date heating degree days 171 226  
Since 1 July heating degree days 218 375  
Cooling Degree Days 0 0  
Month to date cooling degree days 37 14  
Year to date cooling degree days 293 220  
Moisture  
Dew Point 35 °F    
Average Humidity 71    
Maximum Humidity 85    
Minimum Humidity 56    
Precipitation  
Precipitation 0.14 in 0.01 in 0.31 in (2013)
Month to date precipitation 1.49 0.38  
Year to date precipitation 8.95 6.11  
Sea Level Pressure  
Sea Level Pressure 29.77 in    
Wind  
Wind Speed 8 mph (NW)    
Max Wind Speed 22 mph    
Max Gust Speed 28 mph    
Visibility 10 miles    
Events Rain    
T = Trace of Precipitation, MM = Missing Value Source: NWS Daily Summary

Daily Weather History Graph

Daily Weather History Graph

Search for Another Location

Airport or City:

Astronomy

Sep. 28, 2019 Rise Set
Actual Time 6:58 AM PDT 6:51 PM PDT
Civil Twilight 6:29 AM PDT 7:19 PM PDT
Nautical Twilight 5:56 AM PDT 7:53 PM PDT
Astronomical Twilight 5:21 AM PDT 8:27 PM PDT
Moon 6:38 AM PDT (9/28) 7:21 PM PDT (9/28)
Length of Visible Light 12h 50m
Length of Day
11h 52m
New Moon, 0% of the Moon is Illuminated
Sep 28
New Moon
Oct 5
First Quarter
Oct 13
Full
Oct 21
Last Quarter
Oct 27
New

Hourly Weather History & Observations

Time (PDT) Temp. Windchill Dew Point Humidity Pressure Visibility Wind Dir Wind Speed Gust Speed Precip Events Conditions
12:46 AM 44.1 °F 42.5 °F 39.9 °F 85% 29.78 in 8.0 mi NNW 3.5 mph - 0.01 in Rain Rain
12:56 AM 44.1 °F - 39.9 °F 85% 29.75 in 10.0 mi Calm Calm - 0.02 in Rain Light Rain
1:56 AM 43.0 °F 37.7 °F 36.0 °F 76% 29.75 in 10.0 mi WNW 9.2 mph - 0.00 in   Overcast
2:56 AM 43.0 °F 40.3 °F 34.0 °F 71% 29.74 in 10.0 mi West 4.6 mph - N/A   Overcast
3:56 AM 42.1 °F 37.7 °F 34.0 °F 73% 29.74 in 10.0 mi NNW 6.9 mph - N/A   Mostly Cloudy
4:56 AM 41.0 °F 35.8 °F 33.1 °F 73% 29.74 in 10.0 mi WNW 8.1 mph - 0.00 in   Scattered Clouds
5:56 AM 39.0 °F 32.3 °F 32.0 °F 76% 29.74 in 10.0 mi West 10.4 mph - N/A   Clear
6:56 AM 39.0 °F 32.8 °F 32.0 °F 76% 29.74 in 10.0 mi WNW 9.2 mph - N/A   Clear
7:56 AM 39.0 °F 36.8 °F 33.1 °F 79% 29.76 in 10.0 mi SSE 3.5 mph - N/A   Scattered Clouds
8:56 AM 41.0 °F 38.0 °F 34.0 °F 76% 29.75 in 10.0 mi NNW 4.6 mph - 0.00 in Rain Light Rain
9:46 AM 41.0 °F 35.8 °F 35.1 °F 79% 29.76 in 10.0 mi NW 8.1 mph - 0.01 in Rain Light Rain
9:56 AM 41.0 °F 37.1 °F 35.1 °F 79% 29.77 in 10.0 mi NNW 5.8 mph - 0.01 in Rain Light Rain
10:14 AM 39.9 °F - 35.1 °F 83% 29.76 in 3.0 mi Calm Calm - 0.01 in Rain Rain
10:29 AM 41.0 °F - 35.1 °F 79% 29.76 in 10.0 mi Calm Calm - 0.01 in   Overcast
10:31 AM 41.0 °F - 35.1 °F 79% 29.76 in 10.0 mi Calm Calm - 0.01 in   Overcast
10:56 AM 43.0 °F - 36.0 °F 76% 29.76 in 10.0 mi Calm Calm - 0.01 in   Overcast
11:56 AM 45.0 °F 43.5 °F 35.1 °F 68% 29.74 in 10.0 mi North 3.5 mph - 0.00 in   Mostly Cloudy
12:56 PM 48.9 °F - 33.1 °F 54% 29.72 in 10.0 mi NNW 3.5 mph - N/A   Scattered Clouds
1:56 PM 48.0 °F - 37.9 °F 68% 29.72 in 10.0 mi NNE 12.7 mph - 0.04 in   Scattered Clouds
2:56 PM 48.9 °F - 36.0 °F 61% 29.73 in 10.0 mi NNE 11.5 mph - N/A   Mostly Cloudy
3:56 PM 42.1 °F 33.6 °F 35.1 °F 76% 29.77 in 10.0 mi NNW 18.4 mph 27.6 mph 0.01 in Rain Light Rain
4:20 PM 39.0 °F 29.9 °F 35.1 °F 86% 29.76 in 5.0 mi NNW 17.3 mph - 0.03 in Rain Rain
4:54 PM 39.2 °F 33.0 °F 35.6 °F 87% 29.77 in 10.0 mi NNW 9.2 mph - 0.07 in   Overcast
4:56 PM 39.9 °F 33.9 °F 36.0 °F 86% 29.78 in 10.0 mi NNW 9.2 mph - 0.07 in   Overcast
5:56 PM 39.9 °F 35.1 °F 35.1 °F 83% 29.80 in 10.0 mi NW 6.9 mph - N/A   Partly Cloudy
6:10 PM 39.9 °F 34.5 °F 35.1 °F 83% 29.77 in 10.0 mi West 8.1 mph - N/A   Mostly Cloudy
6:56 PM 39.9 °F 34.5 °F 36.0 °F 86% 29.79 in 10.0 mi West 8.1 mph - N/A   Overcast
7:56 PM 39.0 °F 33.4 °F 35.1 °F 86% 29.81 in 10.0 mi West 8.1 mph - N/A   Overcast
8:07 PM 39.0 °F 33.4 °F 35.1 °F 86% 29.78 in 10.0 mi West 8.1 mph - N/A   Overcast
8:20 PM 39.0 °F 34.8 °F 35.1 °F 86% 29.79 in 10.0 mi WSW 5.8 mph - N/A   Overcast
8:56 PM 39.9 °F 35.1 °F 35.1 °F 83% 29.82 in 10.0 mi WNW 6.9 mph - N/A   Overcast
9:27 PM 39.0 °F 32.8 °F 35.1 °F 86% 29.80 in 10.0 mi NW 9.2 mph - N/A   Overcast
9:45 PM 39.0 °F 32.3 °F 35.1 °F 86% 29.80 in 10.0 mi NNW 10.4 mph - N/A   Overcast
9:56 PM 39.0 °F 31.8 °F 34.0 °F 82% 29.83 in 10.0 mi NNW 11.5 mph - N/A   Overcast
10:06 PM 37.9 °F 30.5 °F 34.0 °F 86% 29.80 in 10.0 mi NNW 11.5 mph - N/A   Overcast
10:26 PM 37.9 °F 30.0 °F 34.0 °F 86% 29.81 in 10.0 mi NNW 12.7 mph - N/A   Overcast
10:34 PM 37.9 °F 31.5 °F 34.0 °F 86% 29.81 in 10.0 mi NNW 9.2 mph - 0.00 in Rain Light Rain
10:56 PM 37.0 °F 29.3 °F 34.0 °F 89% 29.83 in 10.0 mi North 11.5 mph - 0.00 in   Overcast
11:56 PM 37.0 °F 31.6 °F 34.0 °F 89% 29.84 in 10.0 mi NNW 6.9 mph - N/A   Overcast